Station Historical Data
Daily Summary for September 9, 2017 Units:  English    Metric   Both
« Previous Day
Next Day »
Daily Weekly Monthly Yearly Custom
  High: Low: Average:
Temperature: 77.7 °F 57.7 °F 66.3 °F
Dew Point: 56.7 °F 53.2 °F 55.1 °F
Humidity: 89% 45% 70%
Wind Speed: 2.0mph 0.0mph 0.2mph
Wind Gust: 7.0mph - -
Wind- - West
Pressure: 30.25 in 30.16 in -
Precipitation: 0.02 in    
Historical Graphs
 
 
Tabular Data for September 9, 2017
Time Temperature Dew Point Pressure Wind Wind Speed Wind Gust Humidity Rainfall Rate (Hourly) Conditions
00:00 61.6 °F 56.7 °F 30.19 in Calm     84% 0.00 in CLR
00:10 61.4 °F 56.5 °F 30.19 in Calm     84% 0.00 in CLR
00:15 61.3 °F 56.4 °F 30.19 in Calm     84% 0.00 in CLR
00:20 61.2 °F 56.3 °F 30.19 in Calm     84% 0.00 in CLR
00:25 61.2 °F 56.3 °F 30.18 in Calm     84% 0.00 in CLR
00:30 61.1 °F 56.2 °F 30.19 in Calm     84% 0.00 in CLR
00:40 60.9 °F 56.0 °F 30.18 in Calm     84% 0.00 in CLR
00:45 60.8 °F 56.3 °F 30.18 in Calm     85% 0.00 in CLR
00:50 60.8 °F 56.3 °F 30.18 in Calm     85% 0.00 in CLR
00:55 60.7 °F 56.2 °F 30.18 in Calm     85% 0.00 in CLR
01:00 60.7 °F 55.8 °F 30.18 in Calm     84% 0.00 in CLR
01:05 60.8 °F 55.9 °F 30.18 in Calm     84% 0.00 in CLR
01:10 60.9 °F 56.0 °F 30.18 in Calm     84% 0.00 in CLR
01:15 60.9 °F 56.4 °F 30.18 in Calm     85% 0.00 in CLR
01:20 60.8 °F 56.3 °F 30.18 in Calm     85% 0.00 in CLR
01:25 60.7 °F 56.2 °F 30.18 in Calm     85% 0.00 in CLR
01:30 60.6 °F 56.1 °F 30.18 in Calm     85% 0.00 in CLR
01:35 60.6 °F 56.1 °F 30.18 in Calm     85% 0.00 in CLR
01:40 60.6 °F 56.1 °F 30.18 in Calm     85% 0.00 in CLR
01:45 60.6 °F 56.1 °F 30.17 in Calm     85% 0.00 in CLR
01:50 60.5 °F 56.0 °F 30.18 in Calm     85% 0.00 in CLR
01:55 60.5 °F 56.0 °F 30.18 in Calm     85% 0.00 in CLR
02:00 60.5 °F 56.0 °F 30.18 in Calm     85% 0.00 in CLR
02:05 60.5 °F 55.6 °F 30.18 in Calm     84% 0.00 in CLR
02:10 60.4 °F 55.5 °F 30.17 in Calm     84% 0.00 in CLR
02:20 60.4 °F 55.9 °F 30.18 in Calm     85% 0.00 in CLR
02:25 60.4 °F 55.9 °F 30.17 in Calm     85% 0.00 in CLR
02:30 60.3 °F 55.8 °F 30.18 in Calm     85% 0.00 in CLR
02:35 60.3 °F 56.1 °F 30.18 in Calm     86% 0.00 in CLR
02:40 60.3 °F 55.8 °F 30.18 in Calm     85% 0.00 in CLR
02:45 60.2 °F 55.7 °F 30.17 in Calm     85% 0.00 in CLR
02:50 60.1 °F 55.6 °F 30.17 in Calm     85% 0.00 in CLR
02:55 60.0 °F 55.5 °F 30.17 in Calm     85% 0.00 in CLR
03:00 60.0 °F 55.8 °F 30.17 in Calm     86% 0.00 in CLR
03:05 59.9 °F 55.7 °F 30.17 in Calm     86% 0.00 in CLR
03:10 59.8 °F 55.6 °F 30.17 in Calm     86% 0.00 in CLR
03:15 59.7 °F 55.5 °F 30.17 in Calm     86% 0.00 in CLR
03:20 59.6 °F 55.7 °F 30.17 in Calm     87% 0.00 in CLR
03:30 59.4 °F 55.2 °F 30.17 in Calm     86% 0.00 in CLR
03:35 59.3 °F 55.5 °F 30.17 in Calm     87% 0.00 in CLR
03:40 59.3 °F 55.4 °F 30.17 in Calm     87% 0.00 in CLR
03:45 59.3 °F 55.4 °F 30.17 in Calm     87% 0.00 in CLR
03:50 59.1 °F 55.2 °F 30.17 in Calm     87% 0.00 in CLR
03:55 59.1 °F 55.2 °F 30.17 in Calm     87% 0.00 in CLR
04:00 59.0 °F 55.1 °F 30.17 in Calm     87% 0.00 in CLR
04:05 58.9 °F 55.0 °F 30.17 in Calm     87% 0.00 in CLR
04:10 58.8 °F 55.3 °F 30.17 in Calm     88% 0.00 in CLR
04:15 58.7 °F 55.2 °F 30.17 in Calm     88% 0.00 in CLR
04:20 58.7 °F 55.2 °F 30.17 in Calm     88% 0.00 in CLR
04:25 58.6 °F 55.1 °F 30.17 in Calm     88% 0.00 in CLR
04:30 58.6 °F 55.1 °F 30.17 in Calm     88% 0.00 in CLR
04:35 58.5 °F 55.0 °F 30.17 in Calm     88% 0.00 in CLR
04:40 58.4 °F 54.9 °F 30.17 in Calm     88% 0.00 in CLR
04:45 58.4 °F 54.9 °F 30.18 in Calm     88% 0.00 in CLR
04:50 58.3 °F 55.1 °F 30.18 in Calm     89% 0.00 in CLR
04:55 58.3 °F 55.1 °F 30.17 in Calm     89% 0.00 in CLR
05:00 58.2 °F 55.0 °F 30.18 in Calm     89% 0.00 in CLR
05:05 58.2 °F 55.0 °F 30.18 in Calm     89% 0.00 in CLR
05:10 58.2 °F 55.0 °F 30.18 in Calm     89% 0.00 in CLR
05:15 58.3 °F 55.1 °F 30.18 in Calm     89% 0.00 in CLR
05:20 58.3 °F 55.1 °F 30.18 in Calm     89% 0.00 in CLR
05:25 58.3 °F 55.1 °F 30.19 in Calm     89% 0.00 in CLR
05:30 58.2 °F 55.0 °F 30.19 in Calm     89% 0.00 in CLR
05:35 58.2 °F 55.0 °F 30.19 in Calm     89% 0.00 in CLR
05:40 58.2 °F 55.0 °F 30.19 in Calm     89% 0.00 in CLR
05:45 58.2 °F 55.0 °F 30.19 in Calm     89% 0.00 in CLR
05:50 58.2 °F 55.0 °F 30.19 in Calm     89% 0.00 in CLR
05:55 58.2 °F 55.0 °F 30.19 in Calm     89% 0.00 in CLR
06:00 58.2 °F 55.0 °F 30.20 in Calm     89% 0.00 in CLR
06:05 58.1 °F 54.9 °F 30.20 in Calm     89% 0.00 in CLR
06:10 58.1 °F 54.9 °F 30.20 in Calm     89% 0.00 in CLR
06:15 58.1 °F 54.9 °F 30.20 in Calm   1.0 mph 89% 0.00 in CLR
06:20 58.1 °F 54.8 °F 30.20 in Calm     89% 0.00 in CLR
06:25 58.0 °F 54.8 °F 30.20 in Calm     89% 0.00 in CLR
06:30 58.1 °F 54.9 °F 30.20 in Calm     89% 0.00 in CLR
06:35 58.2 °F 54.7 °F 30.20 in Calm     88% 0.00 in CLR
06:40 58.2 °F 55.0 °F 30.20 in Calm     89% 0.00 in CLR
06:45 58.2 °F 54.9 °F 30.21 in Calm     89% 0.00 in CLR
06:50 58.1 °F 54.9 °F 30.21 in Calm     89% 0.00 in CLR
06:55 58.0 °F 54.5 °F 30.21 in Calm     88% 0.00 in CLR
07:00 57.9 °F 54.7 °F 30.21 in Calm     89% 0.00 in CLR
07:05 57.9 °F 54.7 °F 30.22 in Calm     89% 0.00 in CLR
07:10 57.9 °F 54.7 °F 30.22 in Calm     89% 0.00 in CLR
07:15 57.8 °F 54.6 °F 30.22 in Calm     89% 0.00 in CLR
07:20 57.8 °F 54.6 °F 30.22 in Calm     89% 0.00 in CLR
07:25 57.7 °F 54.5 °F 30.22 in Calm     89% 0.00 in CLR
07:30 57.8 °F 54.6 °F 30.23 in Calm     89% 0.00 in CLR
07:35 57.8 °F 54.6 °F 30.23 in Calm     89% 0.00 in CLR
07:40 57.8 °F 54.6 °F 30.23 in Calm     89% 0.00 in CLR
07:45 57.9 °F 54.7 °F 30.22 in Calm     89% 0.00 in CLR
07:50 58.2 °F 55.0 °F 30.23 in Calm     89% 0.00 in CLR
07:55 58.3 °F 54.8 °F 30.23 in Calm     88% 0.00 in CLR
08:00 58.6 °F 55.1 °F 30.23 in Calm     88% 0.00 in CLR
08:10 59.3 °F 55.1 °F 30.23 in Calm     86% 0.00 in CLR
08:15 59.6 °F 55.4 °F 30.23 in Calm     86% 0.00 in CLR
08:20 60.0 °F 55.8 °F 30.24 in Calm     86% 0.00 in FEW
08:25 60.4 °F 55.6 °F 30.24 in Calm     84% 0.00 in FEW
08:30 61.0 °F 56.1 °F 30.23 in Calm     84% 0.00 in FEW
08:35 61.5 °F 55.9 °F 30.23 in Calm     82% 0.00 in FEW
08:40 61.7 °F 56.1 °F 30.23 in Calm     82% 0.00 in FEW
08:45 62.0 °F 55.4 °F 30.23 in Calm   1.0 mph 79% 0.00 in FEW
08:50 62.4 °F 55.8 °F 30.23 in Calm     79% 0.00 in FEW
08:55 62.8 °F 55.5 °F 30.23 in Calm   1.0 mph 77% 0.00 in FEW
09:00 63.2 °F 55.9 °F 30.23 in Calm   2.0 mph 77% 0.00 in FEW
09:05 63.5 °F 55.8 °F 30.23 in Calm   2.0 mph 76% 0.00 in FEW
09:10 63.8 °F 55.7 °F 30.24 in Calm   1.0 mph 75% 0.00 in FEW
09:15 64.1 °F 55.3 °F 30.23 in West 1.0 mph 2.0 mph 73% 0.00 in FEW
09:20 64.4 °F 55.9 °F 30.24 in Calm   1.0 mph 74% 0.00 in CLR
09:25 64.6 °F 55.7 °F 30.24 in WNW 1.0 mph 3.0 mph 73% 0.00 in CLR
09:30 64.9 °F 55.6 °F 30.24 in WNW 1.0 mph 2.0 mph 72% 0.00 in CLR
09:35 65.1 °F 55.9 °F 30.24 in Calm   2.0 mph 72% 0.00 in CLR
09:40 65.4 °F 55.7 °F 30.24 in West 1.0 mph 2.0 mph 71% 0.00 in CLR
09:45 65.6 °F 55.6 °F 30.24 in Calm   2.0 mph 70% 0.00 in CLR
09:50 66.0 °F 55.9 °F 30.24 in Calm   1.0 mph 70% 0.00 in CLR
09:55 66.2 °F 55.3 °F 30.24 in West 1.0 mph 1.0 mph 68% 0.00 in CLR
10:00 66.5 °F 55.6 °F 30.24 in Calm   1.0 mph 68% 0.00 in CLR
10:05 66.8 °F 55.9 °F 30.24 in Calm   2.0 mph 68% 0.00 in CLR
10:10 67.0 °F 55.3 °F 30.24 in Calm   2.0 mph 66% 0.00 in CLR
10:15 67.4 °F 55.6 °F 30.24 in Calm   2.0 mph 66% 0.00 in CLR
10:20 67.7 °F 55.5 °F 30.25 in West 1.0 mph 3.0 mph 65% 0.00 in CLR
10:25 68.1 °F 55.0 °F 30.25 in WNW 1.0 mph 5.0 mph 63% 0.02 in RA
10:30 68.6 °F 55.5 °F 30.25 in Calm   1.0 mph 63% 0.00 in CLR
10:35 69.0 °F 55.0 °F 30.25 in West 1.0 mph 3.0 mph 61% 0.00 in CLR
10:40 69.2 °F 54.7 °F 30.25 in Calm   5.0 mph 60% 0.00 in CLR
10:45 69.5 °F 55.0 °F 30.25 in Calm   2.0 mph 60% 0.00 in CLR
10:50 70.0 °F 55.0 °F 30.25 in Calm   5.0 mph 59% 0.00 in CLR
10:55 70.3 °F 55.3 °F 30.25 in WNW 1.0 mph 3.0 mph 59% 0.00 in CLR
11:00 70.6 °F 56.5 °F 30.25 in Calm     61% 0.00 in CLR
11:05 70.9 °F 55.4 °F 30.25 in Calm   2.0 mph 58% 0.00 in CLR
11:10 71.0 °F 54.5 °F 30.25 in West 1.0 mph 6.0 mph 56% 0.00 in CLR
11:15 71.3 °F 56.2 °F 30.25 in Calm   2.0 mph 59% 0.00 in CLR
11:20 71.8 °F 54.3 °F 30.25 in West 1.0 mph 5.0 mph 54% 0.00 in CLR
11:25 71.7 °F 54.2 °F 30.25 in West 1.0 mph 3.0 mph 54% 0.00 in CLR
11:30 71.9 °F 54.3 °F 30.25 in West 1.0 mph 3.0 mph 54% 0.00 in CLR
11:35 72.0 °F 54.4 °F 30.25 in Calm   5.0 mph 54% 0.00 in CLR
11:40 72.3 °F 54.2 °F 30.25 in West 1.0 mph 2.0 mph 53% 0.00 in CLR
11:45 72.6 °F 55.5 °F 30.25 in West 1.0 mph 2.0 mph 55% 0.00 in CLR
11:50 73.2 °F 54.0 °F 30.25 in WNW 1.0 mph 3.0 mph 51% 0.00 in CLR
11:55 73.6 °F 54.9 °F 30.25 in WSW 1.0 mph 3.0 mph 52% 0.00 in CLR
12:00 73.5 °F 53.8 °F 30.25 in SW 1.0 mph 5.0 mph 50% 0.00 in CLR
12:10 74.1 °F 54.3 °F 30.25 in West 1.0 mph 3.0 mph 50% 0.00 in CLR
12:15 74.4 °F 54.6 °F 30.24 in West 1.0 mph 5.0 mph 50% 0.00 in CLR
12:20 74.6 °F 55.3 °F 30.24 in West 1.0 mph 3.0 mph 51% 0.00 in FEW
12:25 74.9 °F 53.9 °F 30.24 in WNW 1.0 mph 3.0 mph 48% 0.00 in FEW
12:30 74.5 °F 54.6 °F 30.24 in West 1.0 mph 2.0 mph 50% 0.00 in FEW
12:40 75.2 °F 55.3 °F 30.24 in Calm   2.0 mph 50% 0.00 in FEW
12:45 75.9 °F 55.4 °F 30.24 in West 1.0 mph 3.0 mph 49% 0.00 in FEW
12:50 76.0 °F 55.5 °F 30.24 in West 1.0 mph 3.0 mph 49% 0.00 in FEW
12:55 75.3 °F 54.8 °F 30.24 in Calm   3.0 mph 49% 0.00 in FEW
13:00 75.4 °F 54.9 °F 30.23 in WNW 1.0 mph 2.0 mph 49% 0.00 in FEW
13:05 75.3 °F 54.8 °F 30.23 in WNW 1.0 mph 5.0 mph 49% 0.00 in FEW
13:10 75.3 °F 55.3 °F 30.23 in Calm   2.0 mph 50% 0.00 in FEW
13:15 75.6 °F 55.1 °F 30.23 in West 1.0 mph 5.0 mph 49% 0.00 in FEW
13:20 75.9 °F 55.3 °F 30.23 in West 1.0 mph 3.0 mph 49% 0.00 in FEW
13:25 76.1 °F 54.4 °F 30.23 in West 1.0 mph 5.0 mph 47% 0.00 in FEW
13:30 76.4 °F 55.3 °F 30.22 in West 1.0 mph 3.0 mph 48% 0.00 in FEW
13:35 76.8 °F 55.6 °F 30.22 in Calm   2.0 mph 48% 0.00 in FEW
13:40 77.3 °F 55.5 °F 30.22 in Calm   2.0 mph 47% 0.00 in FEW
13:45 77.7 °F 55.2 °F 30.22 in NW 1.0 mph 2.0 mph 46% 0.00 in FEW
13:50 76.9 °F 55.1 °F 30.22 in Calm   5.0 mph 47% 0.00 in FEW
13:55 77.3 °F 55.5 °F 30.22 in Calm   3.0 mph 47% 0.00 in FEW
14:00 77.6 °F 56.4 °F 30.22 in Calm   2.0 mph 48% 0.00 in FEW
14:10 76.9 °F 54.0 °F 30.22 in West 1.0 mph 2.0 mph 45% 0.00 in FEW
14:15 76.6 °F 54.9 °F 30.21 in Calm   2.0 mph 47% 0.00 in FEW
14:20 76.9 °F 54.5 °F 30.21 in WNW 1.0 mph 5.0 mph 46% 0.00 in SCT
14:25 77.0 °F 55.2 °F 30.21 in West 1.0 mph 3.0 mph 47% 0.00 in SCT
14:30 76.9 °F 54.5 °F 30.21 in WNW 1.0 mph 5.0 mph 46% 0.00 in SCT
14:40 75.6 °F 54.6 °F 30.20 in Calm   2.0 mph 48% 0.00 in SCT
14:45 75.2 °F 55.8 °F 30.20 in WNW 1.0 mph 2.0 mph 51% 0.00 in SCT
14:50 75.0 °F 55.1 °F 30.20 in Calm   3.0 mph 50% 0.00 in SCT
14:55 74.7 °F 54.2 °F 30.20 in NNW 1.0 mph 3.0 mph 49% 0.00 in SCT
15:00 74.8 °F 54.9 °F 30.20 in Calm   5.0 mph 50% 0.00 in SCT
15:05 75.1 °F 54.6 °F 30.19 in Calm   5.0 mph 49% 0.00 in SCT
15:10 75.3 °F 55.9 °F 30.19 in Calm   2.0 mph 51% 0.00 in SCT
15:15 75.3 °F 53.7 °F 30.19 in WNW 1.0 mph 2.0 mph 47% 0.00 in SCT
15:20 75.2 °F 54.7 °F 30.19 in Calm   3.0 mph 49% 0.00 in FEW
15:25 75.2 °F 54.2 °F 30.18 in Calm   3.0 mph 48% 0.00 in FEW
15:30 75.3 °F 53.7 °F 30.18 in West 1.0 mph 3.0 mph 47% 0.00 in FEW
15:40 75.4 °F 54.9 °F 30.18 in NNW 1.0 mph 5.0 mph 49% 0.00 in FEW
15:45 75.3 °F 53.7 °F 30.18 in Calm   3.0 mph 47% 0.00 in FEW
15:50 75.4 °F 54.9 °F 30.18 in Calm   2.0 mph 49% 0.00 in FEW
15:55 75.3 °F 54.8 °F 30.18 in Calm   2.0 mph 49% 0.00 in FEW
16:00 75.1 °F 55.7 °F 30.18 in Calm   2.0 mph 51% 0.00 in FEW
16:05 75.1 °F 55.7 °F 30.18 in Calm   3.0 mph 51% 0.00 in FEW
16:10 75.1 °F 55.2 °F 30.18 in Calm   2.0 mph 50% 0.00 in FEW
16:15 75.2 °F 54.8 °F 30.17 in NNE 2.0 mph 5.0 mph 49% 0.00 in FEW
16:20 75.2 °F 54.2 °F 30.17 in East 1.0 mph 2.0 mph 48% 0.00 in FEW
16:25 75.1 °F 54.6 °F 30.17 in ESE 1.0 mph 7.0 mph 49% 0.00 in FEW
16:30 75.1 °F 55.2 °F 30.17 in Calm   2.0 mph 50% 0.00 in FEW
16:40 75.0 °F 54.0 °F 30.17 in NW 1.0 mph 5.0 mph 48% 0.00 in FEW
16:45 74.9 °F 53.9 °F 30.17 in Calm   2.0 mph 48% 0.00 in FEW
16:50 74.9 °F 54.5 °F 30.17 in Calm   2.0 mph 49% 0.00 in FEW
16:55 74.8 °F 53.2 °F 30.17 in NW 1.0 mph 3.0 mph 47% 0.00 in FEW
17:00 74.8 °F 54.9 °F 30.17 in Calm   5.0 mph 50% 0.00 in FEW
17:10 74.6 °F 54.7 °F 30.17 in Calm   1.0 mph 50% 0.00 in FEW
17:15 74.6 °F 54.2 °F 30.16 in Calm   2.0 mph 49% 0.00 in FEW
17:20 74.6 °F 54.1 °F 30.17 in Calm   2.0 mph 49% 0.00 in FEW
17:25 74.5 °F 54.6 °F 30.17 in West 1.0 mph 5.0 mph 50% 0.00 in FEW
17:30 74.4 °F 54.0 °F 30.17 in Calm   3.0 mph 49% 0.00 in FEW
17:40 74.3 °F 53.9 °F 30.17 in Calm   2.0 mph 49% 0.00 in FEW
17:45 74.2 °F 54.4 °F 30.16 in Calm   1.0 mph 50% 0.00 in FEW
17:50 74.0 °F 54.7 °F 30.17 in Calm   2.0 mph 51% 0.00 in FEW
17:55 73.9 °F 55.2 °F 30.17 in Calm   1.0 mph 52% 0.00 in FEW
18:00 73.7 °F 55.0 °F 30.17 in Calm   2.0 mph 52% 0.00 in FEW
18:05 73.5 °F 55.3 °F 30.17 in Calm   1.0 mph 53% 0.00 in FEW
18:10 73.3 °F 54.7 °F 30.17 in Calm   1.0 mph 52% 0.00 in FEW
18:15 73.5 °F 54.8 °F 30.17 in Calm   2.0 mph 52% 0.00 in FEW
18:20 73.5 °F 55.3 °F 30.17 in Calm   1.0 mph 53% 0.00 in CLR
18:25 73.3 °F 55.6 °F 30.17 in Calm   1.0 mph 54% 0.00 in CLR
18:30 73.0 °F 55.9 °F 30.16 in Calm     55% 0.00 in CLR
18:40 72.6 °F 55.5 °F 30.17 in Calm   2.0 mph 55% 0.00 in CLR
18:45 72.4 °F 54.8 °F 30.17 in Calm   1.0 mph 54% 0.00 in CLR
18:50 72.4 °F 54.3 °F 30.17 in Calm   1.0 mph 53% 0.00 in CLR
18:55 72.4 °F 54.8 °F 30.17 in Calm   1.0 mph 54% 0.00 in CLR
19:00 72.1 °F 54.5 °F 30.16 in Calm     54% 0.00 in CLR
19:05 71.8 °F 54.8 °F 30.16 in Calm     55% 0.00 in CLR
19:10 71.5 °F 55.0 °F 30.16 in Calm     56% 0.00 in CLR
19:20 71.2 °F 55.2 °F 30.16 in Calm     57% 0.00 in CLR
19:30 70.7 °F 54.7 °F 30.16 in Calm     57% 0.00 in CLR
19:40 70.2 °F 55.2 °F 30.16 in Calm     59% 0.00 in CLR
19:45 69.9 °F 54.9 °F 30.16 in Calm     59% 0.00 in CLR
19:50 69.6 °F 54.6 °F 30.16 in Calm     59% 0.00 in CLR
19:55 69.4 °F 54.9 °F 30.16 in Calm     60% 0.00 in CLR
20:05 68.8 °F 55.2 °F 30.16 in Calm     62% 0.00 in CLR
20:10 68.5 °F 55.0 °F 30.17 in Calm     62% 0.00 in CLR
20:15 68.3 °F 54.8 °F 30.17 in Calm     62% 0.00 in CLR
20:20 68.1 °F 55.0 °F 30.16 in Calm     63% 0.00 in CLR
20:30 67.5 °F 54.9 °F 30.16 in Calm     64% 0.00 in CLR
20:35 67.3 °F 55.1 °F 30.16 in Calm     65% 0.00 in CLR
20:40 67.0 °F 55.3 °F 30.16 in Calm     66% 0.00 in CLR
20:45 66.8 °F 55.1 °F 30.16 in Calm     66% 0.00 in CLR
20:50 66.6 °F 55.3 °F 30.16 in Calm     67% 0.00 in CLR
20:55 66.3 °F 55.0 °F 30.16 in Calm     67% 0.00 in CLR
21:00 66.2 °F 54.9 °F 30.17 in Calm     67% 0.00 in CLR
21:10 66.0 °F 55.1 °F 30.17 in Calm     68% 0.00 in CLR
21:15 65.8 °F 54.9 °F 30.17 in Calm     68% 0.00 in CLR
21:20 65.7 °F 54.8 °F 30.17 in Calm     68% 0.00 in CLR
21:30 65.5 °F 54.6 °F 30.17 in Calm     68% 0.00 in CLR
21:35 65.3 °F 54.9 °F 30.17 in Calm     69% 0.00 in CLR
21:40 65.2 °F 54.8 °F 30.18 in Calm     69% 0.00 in CLR
21:45 65.0 °F 54.6 °F 30.18 in Calm     69% 0.00 in CLR
21:50 64.9 °F 55.3 °F 30.18 in Calm     71% 0.00 in CLR
21:55 64.7 °F 55.1 °F 30.18 in Calm     71% 0.00 in CLR
22:00 64.5 °F 54.5 °F 30.18 in Calm     70% 0.00 in CLR
22:05 64.5 °F 55.2 °F 30.18 in Calm     72% 0.00 in CLR
22:10 64.3 °F 55.1 °F 30.18 in Calm     72% 0.00 in CLR
22:15 64.2 °F 55.0 °F 30.19 in Calm     72% 0.00 in CLR
22:20 64.1 °F 55.3 °F 30.18 in Calm     73% 0.00 in CLR
22:25 64.0 °F 54.8 °F 30.19 in Calm     72% 0.00 in CLR
22:30 63.9 °F 54.7 °F 30.19 in Calm     72% 0.00 in CLR
22:40 63.8 °F 54.9 °F 30.19 in Calm     73% 0.00 in CLR
22:45 63.6 °F 55.2 °F 30.19 in Calm     74% 0.00 in CLR
22:50 63.5 °F 55.4 °F 30.19 in Calm     75% 0.00 in CLR
22:55 63.3 °F 55.2 °F 30.19 in Calm     75% 0.00 in CLR
23:00 63.1 °F 55.4 °F 30.19 in Calm     76% 0.00 in CLR
23:05 62.9 °F 55.6 °F 30.19 in Calm     77% 0.00 in CLR
23:10 62.8 °F 55.1 °F 30.19 in Calm     76% 0.00 in CLR
23:15 62.7 °F 55.0 °F 30.19 in Calm     76% 0.00 in CLR
23:20 62.7 °F 55.0 °F 30.19 in Calm     76% 0.00 in CLR
23:25 62.7 °F 55.0 °F 30.19 in Calm     76% 0.00 in CLR
23:30 62.6 °F 54.9 °F 30.20 in Calm     76% 0.00 in CLR
23:35 62.6 °F 54.9 °F 30.19 in Calm     76% 0.00 in CLR
23:40 62.5 °F 54.8 °F 30.20 in Calm     76% 0.00 in CLR
23:45 62.5 °F 54.8 °F 30.20 in Calm     76% 0.00 in CLR
23:50 62.5 °F 54.5 °F 30.20 in Calm     75% 0.00 in CLR
23:55 62.6 °F 54.5 °F 30.20 in Calm     75% 0.00 in CLR
Piedmont Bend
Compliments of Weather Underground - 4 mb